STARLINK-11194 [DTC] (60187 NORAD) Tracking and Keplerian Element Data

This shows tracking and keplerian element data for the satellite.

Feedback or suggestion? Click here.




ElementValue
Catalog60187
NameSTARLINK-11194 [DTC]
Epoch Orbit1596
Epoch Day286.67639499
Epoch Year2024
RAAN169.9224
Inclination53.1567
Eccentricity8.96E-05
Argument of Perigee100.5918
Mean Anonmoly259.5201
Mean Motion15.69748626
Decay Rate0.00054729
L11 60187U 24124E 24286.67639499 .00054729 00000+0 45289-3 0 9997
L22 60187 53.1567 169.9224 0000896 100.5918 259.5201 15.69748626 15960



Live tracking and technical data element details for STARLINK-11194 [DTC] (NORAD 60187). STARLINK-11194 [DTC] can be tracked NOW for your location showing map with azimuth and elevation plus other details from your city location.







IsCatalogInMostPopularTable: catalog: 60187, numindb: 14
Update: records affected: 1



GetName: 60187 STARLINK-11194 [DTC]

Hit Count: updated at: Thu, 23 Jan 2025 13:18:14 GMT